EW9665 Weather Reports


Display with metric or nautical units.
time (UTC)temp
F
wind
direction
speed
MPH
gust
MPH
rain 1hr
in
rain 24hr
in
rain mn
in
humidity
%
barometer
mb
20260902043043 54 234 0.0 4.0 0.00 0.00 0.00 89 1021.6
20260902042521 54 240 0.0 4.0 0.00 0.00 0.00 89 1021.6
20260902042119 54 247 0.0 3.0 0.00 0.00 0.00 89 1021.6
20260902041540 54 0 0.0 3.0 0.00 0.00 0.00 89 1021.5
20260902041020 54 0 0.0 5.0 0.00 0.00 0.00 89 1021.5
20260902040519 54 249 0.0 6.0 0.00 0.00 0.00 89 1021.5
20260902040047 54 253 1.0 6.0 0.00 0.00 0.00 89 1021.6
20260902035517 54 220 0.0 3.0 0.00 0.00 0.00 89 1021.4
20260902035017 54 0 0.0 3.0 0.00 0.00 0.00 89 1021.4
20260902034541 54 0 0.0 2.0 0.00 0.00 0.00 89 1021.4
20260902033037 54 224 0.0 3.0 0.00 0.00 0.00 89 1021.6
20260902032520 54 0 0.0 3.0 0.00 0.00 0.00 89 1021.6
20260902031543 54 231 0.0 2.0 0.00 0.00 0.00 89 1021.7
20260902031017 54 0 0.0 1.0 0.00 0.00 0.00 89 1021.8
20260902030518 54 0 0.0 0.0 0.00 0.00 0.00 89 1021.7
20260902030039 54 0 0.0 1.0 0.00 0.00 0.00 89 1021.8
20260902025519 54 0 0.0 3.0 0.00 0.00 0.00 89 1021.8
20260902025019 54 0 0.0 3.0 0.00 0.00 0.00 89 1022.0
20260902024539 54 0 0.0 3.0 0.00 0.00 0.00 89 1022.0
20260902023042 54 0 0.0 2.0 0.00 0.00 0.00 89 1021.8
20260902022520 54 0 0.0 2.0 0.00 0.00 0.00 89 1021.8
20260902022019 54 0 0.0 2.0 0.00 0.00 0.00 89 1022.0
20260902021539 54 0 0.0 0.0 0.00 0.00 0.00 89 1022.1
20260902021019 54 0 0.0 3.0 0.00 0.00 0.00 89 1022.2
20260902020520 54 0 0.0 3.0 0.00 0.00 0.00 89 1022.1
20260902020038 54 0 0.0 0.0 0.00 0.00 0.00 89 1022.2
20260902015517 54 0 0.0 0.0 0.00 0.00 0.00 89 1022.0
20260902015017 54 0 0.0 3.0 0.00 0.00 0.00 89 1022.0
20260902014537 54 0 0.0 3.0 0.00 0.00 0.00 89 1022.0
20260902014020 54 239 1.0 3.0 0.00 0.00 0.00 89 1022.0
20260902013516 54 239 1.0 3.0 0.00 0.00 0.00 89 1022.0
20260902013043 54 0 0.0 3.0 0.00 0.00 0.00 89 1021.9
20260902011547 54 0 0.0 2.0 0.00 0.00 0.00 88 1022.1
20260902010037 54 0 0.0 2.0 0.00 0.00 0.00 88 1022.1
20260902005520 54 239 0.0 2.0 0.00 0.00 0.00 88 1022.0
20260902005021 54 0 0.0 1.0 0.00 0.00 0.00 88 1022.1
20260902004539 54 0 0.0 1.0 0.00 0.00 0.00 88 1022.3
20260902004020 54 0 0.0 2.0 0.00 0.00 0.00 88 1022.3
20260902003519 54 0 0.0 4.0 0.00 0.00 0.00 88 1022.4
20260902003042 54 239 1.0 4.0 0.00 0.00 0.00 88 1022.3
20260902002516 54 0 1.0 3.0 0.00 0.00 0.00 88 1022.2
20260902000040 54 0 0.0 0.0 0.00 0.00 0.00 87 1022.1
20260901235520 54 0 0.0 0.0 0.00 0.00 0.00 87 1022.1
20260901235020 54 0 0.0 0.0 0.00 0.00 0.00 87 1022.2
20260901234538 54 0 0.0 0.0 0.00 0.00 0.00 86 1022.2
20260901234022 54 0 0.0 2.0 0.00 0.00 0.00 86 1022.2
20260901233517 54 0 0.0 3.0 0.00 0.00 0.00 86 1022.3
20260901233037 55 274 1.0 3.0 0.00 0.00 0.00 85 1022.4
20260901231540 55 274 1.0 2.0 0.00 0.00 0.00 85 1022.3
20260901231019 55 274 0.0 2.0 0.00 0.00 0.00 85 1022.4
20260901230519 55 274 1.0 2.0 0.00 0.00 0.00 84 1022.3
20260901230040 55 274 1.0 2.0 0.00 0.00 0.00 84 1022.3
20260901225521 56 274 1.0 3.0 0.00 0.00 0.00 84 1022.3
20260901225021 56 274 1.0 3.0 0.00 0.00 0.00 83 1022.4
20260901224540 56 274 1.0 2.0 0.00 0.00 0.00 83 1022.5
20260901224023 56 274 1.0 2.0 0.00 0.00 0.00 82 1022.4
20260901223519 57 274 1.0 3.0 0.00 0.00 0.00 81 1022.5
20260901223041 57 274 1.0 3.0 0.00 0.00 0.00 81 1022.4
20260901222518 57 274 1.0 2.0 0.00 0.00 0.00 80 1022.4
20260901222021 58 274 0.0 2.0 0.00 0.00 0.00 80 1022.3
20260901221555 58 274 1.0 2.0 0.00 0.00 0.00 80 1022.4
20260901221019 58 274 1.0 2.0 0.00 0.00 0.00 80 1022.4
20260901220519 58 274 1.0 2.0 0.00 0.00 0.00 79 1022.3
20260901220050 59 274 1.0 2.0 0.00 0.00 0.00 78 1022.6
20260901215517 59 274 0.0 3.0 0.00 0.00 0.00 78 1022.5
20260901215017 59 274 0.0 4.0 0.00 0.00 0.00 77 1022.5
20260901214537 60 275 0.0 4.0 0.00 0.00 0.00 77 1022.5
20260901214018 60 276 1.0 3.0 0.00 0.00 0.00 77 1022.6
20260901213521 60 276 1.0 3.0 0.00 0.00 0.00 77 1022.7
20260901213036 60 275 1.0 3.0 0.00 0.00 0.00 77 1022.5
20260901212519 60 275 1.0 6.0 0.00 0.00 0.00 76 1022.5
20260901212024 60 280 1.0 6.0 0.00 0.00 0.00 77 1022.5
20260901211538 60 266 2.0 6.0 0.00 0.00 0.00 77 1022.7
20260901211021 60 281 2.0 7.0 0.00 0.00 0.00 77 1022.7
20260901210522 60 287 2.0 7.0 0.00 0.00 0.00 77 1022.8
20260901210040 60 275 2.0 7.0 0.00 0.00 0.00 77 1022.7
20260901205516 60 257 1.0 7.0 0.00 0.00 0.00 78 1022.8
20260901205020 60 270 2.0 7.0 0.00 0.00 0.00 78 1022.7
20260901204541 59 295 2.0 3.0 0.00 0.00 0.00 78 1022.7
20260901204017 59 289 1.0 4.0 0.00 0.00 0.00 78 1022.6
20260901203518 59 289 1.0 4.0 0.00 0.00 0.00 79 1022.7
20260901203037 59 291 1.0 4.0 0.00 0.00 0.00 79 1022.6
20260901202521 59 268 0.0 2.0 0.00 0.00 0.00 79 1022.5
20260901202019 59 268 0.0 2.0 0.00 0.00 0.00 79 1022.6
20260901201536 59 0 0.0 3.0 0.00 0.00 0.00 79 1022.5
20260901201023 59 0 0.0 3.0 0.00 0.00 0.00 79 1022.5
20260901200518 59 268 0.0 2.0 0.00 0.00 0.00 79 1022.5
20260901200039 59 0 0.0 0.0 0.00 0.00 0.00 78 1022.4
20260901195518 59 0 0.0 0.0 0.00 0.00 0.00 78 1022.4
20260901195021 59 0 0.0 0.0 0.00 0.00 0.00 77 1022.4
20260901194538 59 0 0.0 0.0 0.00 0.00 0.00 77 1022.4
20260901194017 60 0 0.0 0.0 0.00 0.00 0.00 76 1022.4
20260901193518 60 0 0.0 0.0 0.00 0.00 0.00 76 1022.3
20260901193041 60 0 0.0 0.0 0.00 0.00 0.00 75 1022.3
20260901192517 61 0 0.0 0.0 0.00 0.00 0.00 74 1022.1
20260901192019 61 0 0.0 0.0 0.00 0.00 0.00 74 1022.2
20260901191555 61 0 0.0 0.0 0.00 0.00 0.00 73 1022.1
20260901191023 62 0 0.0 0.0 0.00 0.00 0.00 72 1022.0
20260901190523 62 0 0.0 1.0 0.00 0.00 0.00 72 1022.0
20260901190041 62 0 0.0 3.0 0.00 0.00 0.00 71 1022.0
20260901185521 63 0 0.0 3.0 0.00 0.00 0.00 71 1022.1
20260901185020 63 0 0.0 0.0 0.00 0.00 0.00 70 1022.0
20260901184545 64 0 0.0 0.0 0.00 0.00 0.00 69 1021.8
20260901184129 64 0 0.0 0.0 0.00 0.00 0.00 69 1021.9
20260901183520 65 0 0.0 2.0 0.00 0.00 0.00 68 1021.7
20260901183046 65 0 0.0 2.0 0.00 0.00 0.00 67 1021.6
20260901182534 66 0 0.0 2.0 0.00 0.00 0.00 67 1021.7
20260901182023 66 0 0.0 3.0 0.00 0.00 0.00 67 1021.7
20260901181538 66 269 0.0 4.0 0.00 0.00 0.00 66 1021.8
20260901181021 67 269 1.0 4.0 0.00 0.00 0.00 66 1021.7
20260901180524 67 273 1.0 4.0 0.00 0.00 0.00 65 1021.8
20260901180040 68 260 1.0 4.0 0.00 0.00 0.00 65 1021.8
20260901175519 68 258 0.0 4.0 0.00 0.00 0.00 63 1021.8
20260901175023 68 0 0.0 1.0 0.00 0.00 0.00 63 1021.8
20260901174547 69 0 0.0 3.0 0.00 0.00 0.00 63 1021.6
20260901174019 69 0 0.0 4.0 0.00 0.00 0.00 62 1021.7
20260901173517 69 258 1.0 4.0 0.00 0.00 0.00 62 1021.7
20260901173050 69 258 2.0 10.0 0.00 0.00 0.00 62 1021.6
20260901172521 69 256 2.0 10.0 0.00 0.00 0.00 61 1021.7
20260901172020 70 223 2.0 6.0 0.00 0.00 0.00 60 1021.7
20260901171542 70 285 2.0 7.0 0.00 0.00 0.00 59 1021.6
20260901171019 70 293 2.0 8.0 0.00 0.00 0.00 59 1021.7
20260901170522 71 291 2.0 8.0 0.00 0.00 0.00 59 1021.6
20260901170044 71 298 1.0 8.0 0.00 0.00 0.00 57 1021.6
20260901165519 71 285 2.0 8.0 0.00 0.00 0.00 57 1021.6
20260901165020 71 239 2.0 9.0 0.00 0.00 0.00 57 1021.6
20260901164543 71 256 3.0 9.0 0.00 0.00 0.00 57 1021.6
20260901164020 71 246 3.0 8.0 0.00 0.00 0.00 58 1021.5
20260901163523 71 258 2.0 11.0 0.00 0.00 0.00 57 1021.4
20260901163039 71 276 4.0 11.0 0.00 0.00 0.00 57 1021.3
20260901162517 71 290 3.0 10.0 0.00 0.00 0.00 57 1021.3
20260901162022 72 295 4.0 10.0 0.00 0.00 0.00 58 1021.3
20260901161551 71 281 4.0 9.0 0.00 0.00 0.00 57 1021.4
20260901161021 71 287 2.0 8.0 0.00 0.00 0.00 58 1021.4
20260901160523 71 275 2.0 10.0 0.00 0.00 0.00 58 1021.4
20260901160035 71 231 4.0 10.0 0.00 0.00 0.00 59 1021.3
20260901155519 71 273 2.0 8.0 0.00 0.00 0.00 59 1021.4
20260901155020 71 271 2.0 10.0 0.00 0.00 0.00 57 1021.5
20260901154552 72 285 5.0 13.0 0.00 0.00 0.00 57 1021.6
20260901154016 72 185 4.0 13.0 0.00 0.00 0.00 58 1021.4
20260901153522 73 217 3.0 9.0 0.00 0.00 0.00 59 1021.4
20260901153045 72 266 4.0 9.0 0.00 0.00 0.00 58 1021.4
20260901152518 72 341 4.0 13.0 0.00 0.00 0.00 58 1021.5
20260901152018 73 252 5.0 13.0 0.00 0.00 0.00 56 1021.4
20260901151540 73 269 3.0 12.0 0.00 0.00 0.00 57 1021.4
20260901151019 73 288 4.0 11.0 0.00 0.00 0.00 57 1021.4
20260901150518 73 301 3.0 10.0 0.00 0.00 0.00 56 1021.4
20260901150042 73 266 5.0 10.0 0.00 0.00 0.00 55 1021.3
20260901145516 73 286 2.0 10.0 0.00 0.00 0.00 57 1021.4
20260901145021 73 298 4.0 10.0 0.00 0.00 0.00 58 1021.4
20260901144545 73 131 4.0 13.0 0.00 0.00 0.00 57 1021.3
20260901144022 73 256 6.0 13.0 0.00 0.00 0.00 57 1021.4
20260901143519 72 231 4.0 12.0 0.00 0.00 0.00 59 1021.5
20260901143045 72 233 6.0 12.0 0.00 0.00 0.00 59 1021.5
20260901142521 72 291 4.0 11.0 0.00 0.00 0.00 60 1021.5
20260901142020 72 251 4.0 13.0 0.00 0.00 0.00 61 1021.4
20260901141545 72 334 6.0 13.0 0.00 0.00 0.00 59 1021.4
20260901141019 72 337 6.0 10.0 0.00 0.00 0.00 62 1021.4
20260901140518 72 278 4.0 10.0 0.00 0.00 0.00 62 1021.4
20260901140035 71 0 3.0 10.0 0.00 0.00 0.00 61 1021.5
20260901135518 71 237 4.0 10.0 0.00 0.00 0.00 61 1021.6
20260901135023 71 241 4.0 10.0 0.00 0.00 0.00 62 1021.5
20260901134535 71 236 3.0 9.0 0.00 0.00 0.00 63 1021.5
20260901134020 71 277 4.0 10.0 0.00 0.00 0.00 62 1021.5
20260901133521 71 307 4.0 14.0 0.00 0.00 0.00 63 1021.5
20260901133035 71 270 5.0 14.0 0.00 0.00 0.00 63 1021.5
20260901132521 71 229 5.0 11.0 0.00 0.00 0.00 63 1021.5
20260901132020 71 288 5.0 11.0 0.00 0.00 0.00 64 1021.6
20260901131536 71 266 7.0 11.0 0.00 0.00 0.00 64 1021.6
20260901131023 70 209 5.0 11.0 0.00 0.00 0.00 66 1021.8
20260901130520 70 274 4.0 12.0 0.00 0.00 0.00 65 1021.8
20260901130036 71 295 5.0 12.0 0.00 0.00 0.00 65 1021.9
20260901125519 71 247 3.0 10.0 0.00 0.00 0.00 62 1021.8
20260901125019 72 249 5.0 11.0 0.00 0.00 0.00 61 1021.7
20260901124540 72 293 4.0 11.0 0.00 0.00 0.00 63 1021.6
20260901124019 73 326 6.0 13.0 0.00 0.00 0.00 62 1021.7
20260901123519 73 262 6.0 13.0 0.00 0.00 0.00 64 1021.6
20260901123040 73 235 5.0 14.0 0.00 0.00 0.00 64 1021.8
20260901122518 73 243 7.0 14.0 0.00 0.00 0.00 62 1021.7
20260901122017 72 219 5.0 11.0 0.00 0.00 0.00 65 1021.8
20260901121538 71 255 4.0 10.0 0.00 0.00 0.00 67 1021.7
20260901121019 71 241 5.0 10.0 0.00 0.00 0.00 66 1021.7
20260901120519 71 310 5.0 10.0 0.00 0.00 0.00 65 1021.8
20260901120038 72 303 5.0 11.0 0.00 0.00 0.00 65 1021.8
20260901115519 72 305 2.0 11.0 0.00 0.22 0.00 65 1021.7
20260901115020 72 317 5.0 15.0 0.00 0.22 0.00 64 1021.7
20260901114555 71 234 5.0 15.0 0.00 0.22 0.00 65 1021.7
20260901114020 71 329 7.0 14.0 0.00 0.22 0.00 64 1021.8
20260901113521 71 322 4.0 15.0 0.00 0.22 0.00 66 1021.7
20260901113036 71 322 6.0 15.0 0.00 0.22 0.00 66 1021.8
20260901112519 71 214 6.0 15.0 0.00 0.22 0.00 66 1021.7
20260901112019 71 247 6.0 13.0 0.00 0.22 0.00 66 1022.0
20260901111544 71 281 6.0 13.0 0.00 0.22 0.00 68 1021.8
20260901111020 70 303 6.0 13.0 0.00 0.22 0.00 69 1021.9
20260901110519 70 283 5.0 13.0 0.00 0.22 0.00 72 1022.0
20260901110040 70 315 6.0 13.0 0.00 0.22 0.00 71 1022.0
20260901105518 70 301 5.0 12.0 0.00 0.28 0.00 71 1022.0
20260901105023 69 242 5.0 12.0 0.00 0.28 0.00 73 1022.0
20260901104537 69 216 6.0 12.0 0.00 0.28 0.00 73 1022.0
20260901104020 69 245 7.0 13.0 0.00 0.28 0.00 74 1022.0
20260901103519 68 289 4.0 13.0 0.00 0.28 0.00 76 1022.0
20260901103041 67 270 3.0 11.0 0.00 0.28 0.00 78 1021.8
20260901102518 66 304 5.0 11.0 0.00 0.28 0.00 80 1021.9
20260901102018 66 230 4.0 10.0 0.00 0.28 0.00 81 1021.9
20260901101539 65 253 2.0 8.0 0.00 0.28 0.00 80 1022.0
20260901101025 65 231 3.0 8.0 0.00 0.28 0.00 81 1022.2
20260901100518 65 0 2.0 8.0 0.00 0.28 0.00 81 1022.1
20260901100037 65 261 5.0 11.0 0.00 0.28 0.00 80 1022.1
20260901095520 65 299 3.0 14.0 0.00 0.28 0.00 80 1022.1
20260901095020 66 275 6.0 14.0 0.00 0.28 0.00 79 1022.1
20260901094540 66 208 4.0 13.0 0.00 0.28 0.00 80 1022.0
20260901094019 65 233 3.0 12.0 0.00 0.28 0.00 82 1022.2
20260901093518 65 251 2.0 8.0 0.00 0.28 0.00 82 1022.1
20260901093038 65 306 4.0 8.0 0.00 0.28 0.00 81 1022.1
20260901092520 65 308 1.0 8.0 0.00 0.28 0.00 82 1022.0
20260901092021 65 264 3.0 8.0 0.00 0.28 0.00 82 1021.9
20260901091536 65 262 2.0 8.0 0.00 0.28 0.00 84 1022.0
20260901091020 64 247 3.0 13.0 0.00 0.28 0.00 84 1022.0
20260901090518 64 306 5.0 13.0 0.00 0.28 0.00 84 1021.9
20260901090046 64 226 5.0 13.0 0.00 0.28 0.00 86 1022.0
20260901085521 63 277 2.0 8.0 0.00 0.29 0.00 86 1021.9
20260901085019 63 208 4.0 7.0 0.00 0.29 0.00 86 1022.0
20260901084543 63 218 1.0 7.0 0.00 0.29 0.00 86 1022.0
20260901084017 62 287 3.0 8.0 0.00 0.29 0.00 86 1022.0
20260901083517 62 248 2.0 8.0 0.00 0.29 0.00 86 1021.8
20260901083038 62 239 2.0 11.0 0.00 0.29 0.00 87 1021.7
20260901082520 62 318 1.0 11.0 0.00 0.29 0.00 87 1021.7
20260901082017 62 250 3.0 11.0 0.00 0.29 0.00 87 1021.7
20260901081536 62 262 2.0 8.0 0.00 0.29 0.00 88 1021.6
20260901081019 62 255 3.0 7.0 0.00 0.29 0.00 88 1021.6
20260901080519 62 280 1.0 5.0 0.00 0.29 0.00 89 1021.6
20260901080038 61 220 2.0 6.0 0.00 0.29 0.00 89 1021.4
20260901075520 61 0 0.0 10.0 0.00 0.30 0.00 89 1021.5
20260901075022 61 220 2.0 10.0 0.00 0.30 0.00 89 1021.5
20260901074544 61 254 1.0 5.0 0.00 0.30 0.00 89 1021.4
20260901074018 60 208 1.0 9.0 0.00 0.30 0.00 89 1021.4
20260901073519 60 287 2.0 9.0 0.00 0.30 0.00 90 1021.3
20260901073036 60 231 1.0 9.0 0.00 0.30 0.00 90 1021.3
20260901072521 60 209 4.0 9.0 0.00 0.30 0.00 90 1021.2
20260901072018 60 229 2.0 9.0 0.00 0.30 0.00 90 1021.2
20260901071540 60 206 2.0 10.0 0.00 0.30 0.00 90 1021.1
20260901071018 60 271 3.0 10.0 0.00 0.30 0.00 91 1021.1
20260901070522 60 286 0.0 7.0 0.00 0.30 0.00 91 1021.1
20260901070044 60 250 2.0 8.0 0.00 0.30 0.00 91 1021.0
20260901065520 60 238 3.0 8.0 0.00 0.30 0.00 91 1021.1
20260901065020 60 0 2.0 8.0 0.00 0.30 0.00 91 1021.0
20260901064535 60 0 3.0 9.0 0.00 0.30 0.00 91 1021.1
20260901064018 59 258 3.0 9.0 0.00 0.30 0.00 91 1021.1
20260901063520 59 229 3.0 9.0 0.00 0.30 0.00 91 1020.9
20260901063035 59 204 4.0 9.0 0.00 0.30 0.00 91 1021.0
20260901062516 59 0 0.0 9.0 0.00 0.30 0.00 92 1020.9
20260901062020 59 0 2.0 10.0 0.00 0.30 0.00 92 1020.9
20260901061539 59 246 1.0 10.0 0.00 0.30 0.00 92 1021.0
20260901061021 59 224 2.0 7.0 0.00 0.30 0.00 92 1021.0
20260901060519 59 249 1.0 6.0 0.00 0.30 0.00 92 1020.9
20260901060041 59 0 1.0 7.0 0.00 0.30 0.00 91 1020.8
20260901055518 59 235 1.0 7.0 0.00 0.30 0.00 91 1020.7
20260901055016 59 265 1.0 5.0 0.00 0.30 0.00 91 1020.7
20260901054538 59 245 2.0 7.0 0.00 0.30 0.00 91 1020.6
20260901054021 59 243 2.0 7.0 0.00 0.30 0.00 91 1020.6
20260901053521 59 201 1.0 7.0 0.00 0.30 0.00 91 1020.5
20260901053043 59 222 1.0 9.0 0.00 0.30 0.00 91 1020.5
20260901052519 59 251 4.0 9.0 0.00 0.30 0.00 91 1020.5
20260901052020 59 251 1.0 7.0 0.00 0.30 0.00 91 1020.6
20260901051543 59 230 3.0 7.0 0.00 0.30 0.00 91 1020.4
20260901051023 59 0 3.0 9.0 0.00 0.30 0.00 91 1020.4
20260901050516 59 0 1.0 9.0 0.00 0.30 0.00 91 1020.4
20260901050039 59 0 2.0 7.0 0.00 0.30 0.00 91 1020.4
20260901045518 59 237 2.0 7.0 0.00 0.30 0.00 91 1020.3
20260901045018 59 227 2.0 9.0 0.00 0.30 0.00 91 1020.3
20260901044552 59 230 2.0 9.0 0.00 0.30 0.00 91 1020.4